Location: Bad Rothenbrunn
(47.2167°N, 11.2167°E)
Time: 04:44:39
(UTC+00:00)

Cosmos 2184 Rocket - Pass Details

Date: 03 March 2021
Orbit: 960 x 1001 km, 82.9° (Epoch: 22 April)

Event Time Altitude Azimuth Distance (km) Brightness Sun altitude
Rises 17:54:08 0° 190° (S) 3,629 7.1 -9.4°
Reaches altitude 10° 17:56:37 10° 191° (SSW) 2,689 6.5 -9.8°
Maximum altitude 18:02:47 80° 279° (W) 985 4.2 -10.9°
Drops below altitude 10° 18:09:02 10° 7° (N) 2,725 6.3 -11.9°
Sets 18:11:34 0° 9° (N) 3,682 7.0 -12.4°
